Weather Roundup
Issued by NWS Chicago, IL

Home | Current Version | Previous Version | Text Only | Print | Product List | Glossary On
Versions: 1 2 3 4 5 6 7 8 9 10 11 12 13 14 15 16 17 18 19 20 21 22 23 24 25 26 27 28 29 30 31 32 33 34 35 36 37 38 39 40 41 42 43 44 45 46 47 48 49 50
000
NZUS59 KLOT 211807
HRRLOT

CHICAGO AREA WEATHER ROUNDUP
NATIONAL WEATHER SERVICE CHICAGO/ROMEOVILLE IL
1200 PM CST FRI JAN 21 2022

NOTE: "FAIR" INDICATES FEW OR NO CLOUDS BELOW 12,000 FEET WITH NO
SIGNIFICANT WEATHER AND/OR OBSTRUCTIONS TO VISIBILITY.

* THESE STATIONS ARE NOT UNDER NWS QUALITY CONTROL. THEY ALSO MAY NOT
  REPORT WEATHER SUCH AS PRECIPITATION OR FOG.

ILZ005-006-012>014-019>023-211900-
NORTHEAST ILLINOIS

CITY           SKY/WX    TMP DP  RH WIND       PRES   REMARKS
OHARE          PTSUNNY   23   8  52 S7        30.53F WCI  15
6HR MIN TEMP:  10; 6HR MAX TEMP:  24;

MIDWAY         MOSUNNY   25   8  48 S9        30.55F WCI  15
6HR MIN TEMP:  14; 6HR MAX TEMP:  25; 6HR PCP: TRACE;

AURORA         MOSUNNY   21   8  57 SW6       30.54F WCI  13
6HR MIN TEMP:   1; 6HR MAX TEMP:  22;

LANSING*       PTSUNNY   22   8  54 SW3       30.55F
JOLIET*        MOSUNNY   24   9  53 SE5       30.56F WCI  18
WAUKEGAN       SUNNY     24   8  50 SW9       30.52F WCI  14
6HR MIN TEMP:   7; 6HR MAX TEMP:  24;

DUPAGE AIRPORT SUNNY     21   7  54 SW12      30.53F WCI   9
6HR MIN TEMP:   2; 6HR MAX TEMP:  22;

WHEELING       SUNNY     24   8  50 S6        30.55F WCI  17
6HR MIN TEMP:  10; 6HR MAX TEMP:  24;

KANKAKEE*      PTSUNNY   23  10  58 S7        30.56F WCI  15
MORRIS*        MOSUNNY   22  11  61 SW6       30.55F WCI  15
LEWIS AIRPORT* PTSUNNY   22  11  63 SW9       30.55F WCI  12
NORTHERLY ISL*   N/A     24   9  52 SE8         N/A  WCI  15
$$

WIZ051-052-058>065-066-070>072-211900-
SOUTHEAST WISCONSIN

CITY           SKY/WX    TMP DP  RH WIND       PRES   REMARKS
MILWAUKEE      SUNNY     23   6  48 SW13      30.51F WCI  11
6HR MIN TEMP:   6; 6HR MAX TEMP:  23;

KENOSHA*       SUNNY     23   7  50 SW12G23   30.52F WCI  12
RACINE*        SUNNY     23   7  50 SW14G23   30.53F WCI  11
BURLINGTON       N/A     21   8  57 SW14      30.51F WCI   8
WAUKESHA       SUNNY     18   5  57 S9        30.51F WCI   6
WEST BEND      SUNNY     19   3  49 SW9G17    30.49F WCI   9
$$

INZ001>003-010>013-019-020-211900-
NORTHWEST INDIANA

CITY           SKY/WX    TMP DP  RH WIND       PRES   REMARKS
GARY*          SUNNY     23   9  54 MISG      30.57F
MICHIGAN CITY* NOT AVBL
RENSSELAER*    NOT AVBL
VALPARAISO     SUNNY     20   9  62 E6        30.54F WCI  12
$$

LMZ740>746-211900-
SOUTHERN LAKE MICHIGAN

STATION/POSITION TIME  SKY/WX   TEMP WIND        PRES    VSBY
                                AIR  DIR/SP/G
                 (UTC)          (F)  (DEG/KT/KT) (MB)    (MI)
HARRISON CRIB    NOT AVBL
NORTHERLY ISL    1800            23  170/  6/ 11   N/A
CALUMET HARBOR   1724            20  160/  7/ 11 1033.3
BURNS HARBOR     1740            21  170/  4/  7 1034.9F
MICHIGAN CITY    NOT AVBL
$$

ABBREVIATIONS USED IN REMARKS
   TC - TEMPERATURE IN CELSIUS
  WCI - WIND CHILL INDEX
   HX - HEAT INDEX
  VSB - VISIBILITY
$$



USA.gov is the U.S. government's official web portal to all federal, state and local government web resources and services.